sat.trackr.live / text

‹ back to catalog

BRITE-AUSTRIA

NORAD 39091 · 2013-009F

PAYLOAD ACTIVE UNKNOWN

§ Identity

Operator
Country
ASRA
Launch date
2013-02-25
Launch site
SRILR
Launch vehicle
Mass (kg)
RCS (m²)
0.10

Purposes: science, tech_demo

External: N2YO · Heavens-Above · Gunter

§ Orbital elements

Epoch: 2026-05-25T02:00:27.377280Z

Period
100.24 min
Inclination
98.3990°
Eccentricity
0.0009244
Mean motion
14.36531402 rev/d
Perigee alt
763.4 km
Apogee alt
776.6 km
Semi-major
7,148.1 km
B*
6.0759e-5
RAAN
325.0921°
Arg perigee
314.1871°
Mean anomaly
45.8555°
Rev number
69,373

§ Raw data

BRITE-AUSTRIA1 39091U 13009F   26145.08365020  .00000136  00000+0  60759-4 0  99972 39091  98.3990 325.0921 0009244 314.1871  45.8555 14.36531402693737

JSON: /api/v1/satellites/39091 · /tle

For live sub-satellite position, see the globe view (requires WebGL).

§ Visibility from observer

Set your observer location to see the next 7 days of passes ≥ 10°. The values pass through the URL so the page stays shareable.

No JS? Fill the form by hand. The geolocation button needs JavaScript.

§ Radio — SatNOGS DB

ModeDescriptionDownlinkUplink
BPSK Mode S - Telemetry (inactive) 2.234 GHz

1 transmitter · refreshed weekly from db.satnogs.org